Regional Weather Roundup
Issued by NWS

Home | Current Version | Previous Version | Text Only | Print | Product List | Glossary On
Versions: 1 2 3 4 5 6 7 8 9 10 11 12 13 14 15 16 17 18 19 20 21 22 23 24 25 26 27 28 29 30 31 32 33 34 35 36 37 38 39 40 41 42 43 44 45 46 47 48
000
ASUS45 KBOU 020007
RWRCO

WEATHER ROUNDUP FOR COLORADO
NATIONAL WEATHER SERVICE DENVER/BOULDER CO
500 PM MST SUN FEB 01 2015

NOTE: "FAIR" INDICATES FEW OR NO CLOUDS BELOW 12000 FEET WITH NO
SIGNIFICANT WEATHER AND/OR OBSTRUCTIONS TO VISIBILITY.

COZ001>005-013-030-031-020100-
...NORTHWEST COLORADO...

CITY           SKY/WX    TMP DP  RH WIND       PRES   REMARKS
CRAIG          CLOUDY    31  21  66 SE3       30.13F
HAYDEN         CLOUDY    28  14  54 SE5       30.13S WCI  23
MEEKER         CLOUDY    33  18  53 CALM      30.13S
MOUNT WERNER   NOT AVBL
STEAMBOAT SPGS MOCLDY    27  13  56 CALM      30.13S
WALDEN         CLEAR     21  10  63 E6        30.08S WCI  14
$$

COZ006>008-011-020100-
...WEST CENTRAL VALLEYS...

CITY           SKY/WX    TMP DP  RH WIND       PRES   REMARKS
GRAND JUNCTION PTCLDY    45  30  55 N5        30.14S
MONTROSE       CLEAR     45  10  24 NW5       30.16R
EAGLE          MOCLDY    37  10  32 SW12      30.15R
RIFLE          MOCLDY    43  12  28 CALM      30.13S
DELTA          CLEAR     48  22  34 SW6       30.15R
NUCLA          CLEAR     43  21  42 NW6       30.19R
$$

COZ017>023-064>068-020100-
...SOUTHWEST COLORADO...

CITY           SKY/WX    TMP DP  RH WIND       PRES   REMARKS
DURANGO        CLEAR     38  27  64 E5        30.12R
CORTEZ         CLEAR     47   7  19 NW12      30.13R
PAGOSA SPRINGS CLEAR     35  24  63 CALM      30.14R
TELLURIDE      CLEAR     32   1  27 W15       30.16S WCI  22
WOLF CREEK PAS CLEAR     19  18  93 S10       30.16R WCI   8
$$

COZ009-010-012-014-032>034-037-058>063-020100-
...CENTRAL COLORADO...

CITY           SKY/WX    TMP DP  RH WIND       PRES   REMARKS
ASPEN          MOCLDY    29   5  36 N3        30.13R
BUENA VISTA    CLEAR     32   3  30 NW10      30.05R WCI  23
COPPER MTN     CLEAR     14   0  52 W21G33    30.06R WCI  -4
BERTHOUD PASS  NOT AVBL
COTTONWOOD PAS CLEAR     30 -15  13 W16G25    30.06R WCI  19
GUNNISON       CLEAR     32  12  43 W7        30.15S WCI  26
KREMMLING      CLOUDY    30   7  37 CALM      30.13R
LEADVILLE      CLEAR     20   2  45 NW20G26   30.06R WCI   4
MONARCH PASS   CLEAR     12   3  67 MISG      30.15R
SALIDA         CLEAR     35   7  30 SW14      30.13R WCI  26
SUNLIGHT       MOCLDY    21  10  63 SW3         N/A
WILKERSON PASS CLEAR     18  -8  32 NW7G18    30.05S WCI   8
$$

COZ069>075-020100-
...SAN LUIS VALLEY/SANGRE DE CRISTO MOUNTAINS...

CITY           SKY/WX    TMP DP  RH WIND       PRES   REMARKS
ALAMOSA        CLEAR     33  12  41 SW9       30.08R WCI  25
LA VETA PASS   CLEAR     21  12  68 SW8       30.06R WCI  12
SAGUACHE       CLEAR     32  10  40 NW17G23   30.08S WCI  21
$$

COZ035-036-038>040-020100-
...NORTHERN COLORADO FRONT RANGE...

CITY           SKY/WX    TMP DP  RH WIND       PRES   REMARKS
DENVER INTL AP MOCLDY    21  15  78 S10       30.14S WCI  10
DMNS CITY PARK   N/A     24  19  83 S3        30.14F
AURORA         PTCLDY    20  14  77 S2        30.14S
FRONT RANGE AP NOT AVBL
ERIE MUNI ARPT CLEAR     25  19  79 S6        30.15S WCI  18
BOULDER MUN AP CLEAR     25  21  86 SE5       30.14S WCI  19
CENTENNIAL     PTCLDY    23  14  68 CALM      30.13S
BROOMFIELD     PTCLDY    25  19  80 CALM      30.14S
FORT COLLINS   CLEAR     27  18  69 S12       30.15S WCI  16
LONGMONT       CLEAR     29  20  70 S5        30.17S WCI  24
$$

COZ041-046-047-076>085-087-088-020100-
...PIKES PEAK/PALMER DIVIDE AND SOUTHERN FOOTHILLS...

CITY           SKY/WX    TMP DP  RH WIND       PRES   REMARKS
COLO. SPRINGS  MOCLDY    28  18  66 S10       30.12R WCI  19
A. F. ACADEMY  CLOUDY    25  15  65 N8        30.10R WCI  16
ELLICOTT       CLOUDY   N/A N/A N/A N7        30.12R
FALCON         CLOUDY    21  15  76 N9        30.10R WCI  11
FORT CARSON    CLOUDY    29  18  63 S8        30.11R WCI  21
LIMON          PTCLDY    16  12  84 N10       30.16R WCI   4
MONUMENT HILL  CLEAR     19  12  73 W7        30.09S WCI  10
TRINIDAD       CLOUDY    28  21  75 E9        30.14R WCI  19
$$

COZ042>045-048>051-090-091-020100-
...NORTHEAST COLORADO...

CITY           SKY/WX    TMP DP  RH WIND       PRES   REMARKS
GREELEY ARPT   CLEAR     30  10  43 SE10      30.15R WCI  21
AKRON          CLEAR     15  11  83 NE10      30.17S WCI   2
BURLINGTON     PTCLDY    16   9  74 N18G26    30.20R WCI   0
WRAY           CLEAR     13   8  79 N6        30.27S WCI   4
STERLING       CLEAR     19  10  68 NE8       30.20S WCI   9
HOLYOKE        NOT AVBL
FORT MORGAN    CLEAR     24  10  53 NE8       30.18S WCI  15
$$

COZ086-089-092>099-020100-
...SOUTHEAST COLORADO...

CITY           SKY/WX    TMP DP  RH WIND       PRES   REMARKS
PUEBLO         MOCLDY    34  21  59 S7        30.15R WCI  28
LA JUNTA       CLOUDY    33  18  53 N12       30.19R WCI  24
LAMAR          CLEAR     31  17  56 N12       30.21R WCI  22
SPRINGFIELD      N/A     27  18  69 NE13      30.18R WCI  16
$$


USA.gov is the U.S. government's official web portal to all federal, state and local government web resources and services.